Location: *
(43.7000°S, 168.7000°W)
Time: 14:53:19
(UTC+00:00)

CZ-4C R/B - Pass Details

Date: 07 July 2020
Orbit: 632 x 1369 km, 63.4° (Epoch: 04 August)

Event Time Altitude Azimuth Distance (km) Brightness Sun altitude
Exits shadow 18:12:03 - 261° (W) 3,551 4.8 -6.5°
Reaches altitude 10° 18:13:38 10° 253° (WSW) 3,133 4.5 -6.2°
Maximum altitude 18:18:57 20° 208° (SSW) 2,266 4.0 -5.4°
Drops below altitude 10° 18:23:44 10° 161° (SSE) 2,754 4.8 -4.6°
Sets 18:26:53 0° 144° (SE) 3,566 5.6 -4.1°
